This is the latest recevied weather packets stored in our database for station/object N6SPP. If no packets are shown the sender has not sent any weather packets the latest 10 day(s).
| Time | Temp. | Humidity | Pressure | Rain* | Wind** | Luminosity | Snow |
|---|---|---|---|---|---|---|---|
| 1778025617 | 18.33° C | 69% | 1017.3 hPa | 0 mm | - | 230 W/m² | - |
| 1778025315 | 17.78° C | 69% | 1017.3 hPa | 0 mm | - | 291 W/m² | - |
| 1778025011 | 17.78° C | 70% | 1017.3 hPa | 0 mm | - | 254 W/m² | - |
| 1778024709 | 18.33° C | 69% | 1017.2 hPa | 0 mm | - | 253 W/m² | - |
| 1778024405 | 17.78° C | 70% | 1017.1 hPa | 0 mm | - | 254 W/m² | - |
| 1778024103 | 17.78° C | 71% | 1017.3 hPa | 0 mm | - | 327 W/m² | - |
| 1778023800 | 17.22° C | 72% | 1017.2 hPa | 0 mm | - | 285 W/m² | - |
| 1778023498 | 17.22° C | 72% | 1017.3 hPa | 0 mm | - | 204 W/m² | - |
| 1778023195 | 17.22° C | 72% | 1017.3 hPa | 0 mm | - | 193 W/m² | - |
| 1778022892 | 17.78° C | 72% | 1017.5 hPa | 0 mm | - | 187 W/m² | - |
| 1778022590 | 17.78° C | 72% | 1017.4 hPa | 0 mm | - | 192 W/m² | - |
| 1778022288 | 17.78° C | 72% | 1017.3 hPa | 0 mm | - | 234 W/m² | - |
| 1778021984 | 17.22° C | 73% | 1017.4 hPa | 0 mm | - | 234 W/m² | - |
| 1778021681 | 17.22° C | 72% | 1017.3 hPa | 0 mm | - | 166 W/m² | - |
| 1778021377 | 17.22° C | 73% | 1017.4 hPa | 0 mm | - | 138 W/m² | - |
| 1778021074 | 17.22° C | 72% | 1017.4 hPa | 0 mm | - | 146 W/m² | - |
| 1778020771 | 17.22° C | 72% | 1017.4 hPa | 0 mm | - | 156 W/m² | - |
| 1778020468 | 17.78° C | 71% | 1017.4 hPa | 0 mm | - | 170 W/m² | - |
| 1778020164 | 17.78° C | 70% | 1017.4 hPa | 0 mm | - | 202 W/m² | - |
| 1778019860 | 17.78° C | 71% | 1017.6 hPa | 0 mm | - | 271 W/m² | - |
| 1778019556 | 17.78° C | 71% | 1017.5 hPa | 0 mm | - | 288 W/m² | - |
| 1778019254 | 17.78° C | 71% | 1017.4 hPa | 0 mm | - | 227 W/m² | - |
| 1778018951 | 17.78° C | 71% | 1017.5 hPa | 0 mm | - | 231 W/m² | - |
| 1778018648 | 17.78° C | 70% | 1017.6 hPa | 0 mm | - | 321 W/m² | - |
| 1778018346 | 17.78° C | 71% | 1017.3 hPa | 0 mm | - | 309 W/m² | - |
* Rain latest hour (hover to see other rain measurements)
** Current wind speed in m/s (hover to see current wind gust speed)